Regional Weather Roundup
Issued by NWS Wakefield, VA

Home | Current Version | Previous Version | Graphics & Text | Print | Product List | Glossary On
Versions: 1 2 3 4 5 6 7 8 9 10 11 12 13 14 15 16 17 18 19 20 21 22 23 24 25 26 27 28 29 30 31 32 33 34 35 36 37 38 39 40 41 42 43 44 45 46 47 48 49 50
000
ASUS41 KAKQ 200120
RWRAKQ

REGIONAL WEATHER ROUNDUP
NATIONAL WEATHER SERVICE WAKEFIELD VA
900 PM EDT TUE SEP 19 2017

Note: "fair" indicates few or no clouds below 12,000 feet with no
significant weather and/or obstructions to visibility. * = Denotes
station may not report precipitation (e.g., rain,snow,etc.),
thunder or fog.

VAZ042-051-052>054-056-200200-
NORTHERN VIRGINIA

CITY           SKY/WX    TMP DP  RH WIND       PRES   REMARKS
WASH NATIONAL  PTCLDY    77  66  68 NW10      29.91R
DULLES         PTCLDY    73  67  81 NW6       29.93R
FORT BELVOIR   CLEAR     73  66  77 NW3       29.91R
QUANTICO       CLEAR     73  68  84 N8        29.92R
FREDERICKSBRG* CLEAR     73  67  81 NW3       29.91R
STAFFORD*      CLEAR     67  67 100 NW3       29.96R
WARRENTON      CLEAR     64  60  86 CALM      29.92S
CULPEPER*      CLEAR     67  65  96 CALM      29.94R
MANASSAS*      CLEAR     72  66  81 N5        29.93R
LEESBURG*      CLEAR     73  70  88 N3        29.95R
WINCHESTER     CLEAR     63  61  94 CALM      29.96R
FRONT ROYAL*   CLEAR     68  64  88 CALM      29.95R
LURAY*         CLEAR     68  63  83 CALM      29.97R
$$

VAZ048-049-060>072-079>083-200200-
CENTRAL AND SOUTH CENTRAL VIRGINIA

CITY           SKY/WX    TMP DP  RH WIND       PRES   REMARKS
RICHMOND       PTCLDY    74  65  73 NW9       29.90R
CHESTERFIELD*  NOT AVBL
PETERSBURG*    CLEAR     67  64  91 CALM      29.92R
HANOVER        PTCLDY    70  66  87 CALM      29.92R
TAPPAHANNOCK*  PTCLDY    77  60  56 CALM      29.90R
QUINTON*       FAIR      72  68  87 W10       29.89R
CHARLOTTSVILLE CLEAR     72  67  84 N3        29.95R
GORDONSVILLE*  CLEAR     67  66  97 CALM      29.95R
ORANGE*        CLEAR     64  63  94 CALM      29.94R
LOUISA*        CLEAR     63  61  94 CALM      29.94R
BUMPASS*       NOT AVBL
FARMVILLE*     CLEAR     68  68 100 CALM      29.94R
CREWE*         FAIR      67  67 100 CALM      29.94R
FORT PICKETT*  FAIR      67  67 100 W12       29.94R
CHASE CITY*    FAIR      68  68 100 CALM      29.95R
CLARKSVILLE*   FAIR      70  68  94 CALM      29.94R
SOUTH HILL*    CLEAR     66  66 100 CALM      29.99R
LAWRENCEVILLE* FAIR      68  67  96 CALM      29.93R
EMPORIA*       CLEAR     66  64  94 CALM      29.93R
$$

VAZ088>098-200200-
SOUTHEAST VIRGINIA

CITY           SKY/WX    TMP DP  RH WIND       PRES   REMARKS
NORFOLK        CLOUDY    75  69  81 N14G22    29.87R
VIRGINIA BEACH CLOUDY    73  67  81 N15       29.86R
NORFOLK NAVAL  MOCLDY    74  67  78 N12       29.89S
WEST POINT*    NOT AVBL
SALUDA*        CLOUDY    72  71  96 N10       29.88S
NEWPORT NEWS   CLOUDY    72  68  87 N5        29.88S
LANGLEY AFB    NOT AVBL
FORT EUSTIS    CLOUDY    74  68  82 N5        29.87R
WILLIAMSBURG*  CLOUDY    75  70  83 CALM      29.90R
HR EXEC AP*    LGT RAIN  72  70  93 CALM      29.89R
FRANKLIN*      CLEAR     72  66  80 NW5       29.90R
US460-WAKEFLD  CLEAR     72  67  84 CALM      29.90R
$$

VAZ020-022-025-037-045-200200-
WEST CENTRAL AND SOUTHWEST VIRGINIA

CITY           SKY/WX    TMP DP  RH WIND       PRES   REMARKS
STAUNTON*      CLEAR     67  62  81 CALM      30.00R
WAYNESBORO*    CLEAR     67  65  91 CALM      29.99R
HOT SPRINGS VA MOCLDY    68  56  65 CALM      30.12R
LYNCHBURG      PTCLDY    67  64  90 CALM      29.97R
DANVILLE       CLEAR     67  66  97 CALM      29.96R
SOUTH BOSTON*  FAIR      68  67  96 CALM      29.95R
MARTINSVILLE   CLEAR     67  65  96 CALM      30.00R
ROANOKE        MOCLDY    73  66  78 CALM      30.00R
BLACKSBURG     PTCLDY    66  62  86 CALM      30.06R
DUBLIN*        CLOUDY    69  67  92 CALM      30.05R
MARION*        CLOUDY    68  63  84 CALM      30.08S
HILLSVILLE*    PTCLDY    68  61  78 CALM      30.06R
RICHLANDS*     FAIR      71  59  65 CALM      30.07R
WISE*          MOCLDY    68  59  73 CALM      30.08R
ABINGDON*      CLEAR     70  63  80 CALM      30.03S
$$

MDZ021>025-VAZ099-100-200200-
SOUTHERN MARYLAND AND THE DELMARVA PENINSULA

CITY           SKY/WX    TMP DP  RH WIND       PRES   REMARKS
PATUXENT RIVER MOCLDY    73  70  90 NW10      29.88R
BAY BRIDGE APT CLOUDY    75  66  73 N6        29.89R
LEONARDTOWN    CLOUDY    70  68  94 W3        29.91R
DOVER          CLOUDY    70  68  94 N10       29.85S
GEORGETOWN     CLOUDY    70  67  90 N7G17     29.85S
EASTON         DRIZZLE   72  68  88 N8        29.92R
CAMBRIDGE      CLOUDY    72  70  94 N5        29.87S
SALISBURY      LGT RAIN  69  68  96 N14G21    29.85S
OCEAN CITY     LGT RAIN N/A N/A N/A N14G25    29.83R
WALLOPS ISLAND LGT RAIN  70  69  97 N14G23    29.84S
ACCOMACK*      CLOUDY    72  69  90 N7        29.86R
$$

NCZ012>017-030>032-200200-
NORTH CENTRAL AND EASTERN NORTH CAROLINA

CITY           SKY/WX    TMP DP  RH WIND       PRES   REMARKS
ROANOKE RAPIDS FAIR      68  66  94 MISG      29.92R
RALEIGH        PTCLDY    70  65  84 CALM      29.96R
ELIZABETH CITY CLOUDY    73  70  90 NW8       29.88R
AHOSKIE*         N/A     69  67  93 CALM      29.91R
EDENTON*       CLOUDY    75  70  83 CALM      29.90R
CURRITUCK*     CLOUDY    72  67  85 NW6       29.89R
KILL DEVIL HLS CLOUDY    71  65  80 NW5       29.86R
MANTEO         CLOUDY    72  67  86 N9G17     29.88R
CAPE HATTERAS  CLOUDY    75  69  81 NW8G20    29.89R
TARBORO*       NOT AVBL
GOLDSBORO      CLEAR     74  72  93 CALM      29.92R
WASHINGTON     CLEAR     73  66  80 CALM      29.92R
GREENVILLE     CLEAR     68  68 100 CALM      29.95R
NEW BERN       CLEAR     72  69  90 W3        29.94R
WILMINGTON     CLEAR     72  69  90 CALM      29.94R
$$

VAZ048-200200-
ELSEWHERE

CITY           SKY/WX    TMP DP  RH WIND       PRES   REMARKS
HARRISBURG PA  PTCLDY    72  65  78 N6        29.93R
BALTIMORE      CLOUDY    74  67  78 NW6       29.90R
ANNAPOLIS      CLOUDY    79  71  76 N3        29.89R
ANDREWS AFB    PTCLDY    75  65  69 N9        29.90R
PHILADELPHIA   CLOUDY    75  64  68 N22G32    29.88R
HENDERSON NC   CLEAR     69  62  76 CALM      29.95R
GREENSBORO     PTCLDY    73  66  78 SW3       29.97R
ROCKY MOUNT    CLEAR     68  68 100 SW3       29.93R
$$

VAZ100-200200-
MARINE

STATION/POSITION TIME  TEMP    WIND        PRES    WAVE   SWELL
                       AIR SEA DIR/SP/G            HT/PER HT/PER
                 (UTC) (F)     (DEG/KT/KT) (MB)    (FT/S) (FT/S)
BRANDYWINE LGT   0042   72      20/ 31/ 35 1010.3R
CAPE MAY NJ      0042   71 74  360/ 12/ 23 1009.5R
LEWES DE         0042   72 72   10/ 24/ 28 1010.1R
15NM E FENWICK I 0050   70 71  340/ 27/ 33 1007.9R  12/ 9   8/ 9
OCEAN-CITY-INLET 0042   69 73  360/ 17/ 22 1009.9R
WACHAPREAGUE VA  0042   72 74  350/  6/ 11 1010.5S
THOMAS POINT MD  0100   77 75  340/  9/ 10   N/A
GOOSES REEF MD   0100   77 74   30/ 12/ 14 1012.2    0
COVE POINT MD    0042   76      20/ 17/ 20 1012.3R
SOLOMONS ISLAND  0042   74 76  340/  5/  8 1011.4R
BISHOPS HEAD MD  0042   71 74  340/  6/  8 1011.5R
PINEY POINT MD   0042          360/  7/  8   N/A
POTOMAC MD       0100   74 75  330/ 10/ 12 1011.0    0
CAMBRIDGE MD     0042   73 75              1012.3S
LEWISETTA VA     0042   73 75  340/  5/  7 1011.6F
RAPPAHANNOCK LGT 0042          330/ 17/ 20 1011.6R
STINGRAY PT      0100   74 75  350/ 12/ 14 1011.9    2/ 3
YORK RVR RNG VA  0042   74      10/ 15/ 18 1012.1R
YORKTOWN VA      0042   73 76  360/  9/ 12 1011.6R
JAMESTOWN VA     0100      78   40/  4/  6   N/A
DOMINION TERM VA 0042   74      60/  2/  4 1011.9R
KIPTOPEKE VA     0042      74   10/ 11/ 16   N/A
CHES BAY BRIDGE  0042   74 75  350/ 21/ 23 1011.2R
CAPE HENRY VA    0042   74     350/ 21/ 24   N/A
WILLOUBY STN VA  0042   74     350/ 11/ 13 1011.7R
S CRANEY ISL VA  0042   74      10/ 12/ 14 1011.6R
CAPE HENRY BUOY  0030      74                N/A     9/11   5/11
1ST LANDING BUOY 0100   74 74              1011.0    5/ 5
64NM E OF VA BCH 0050   71 71  320/ 25/ 29 1008.3R  15/11  13/11
DUCK PIER NC     0042   74 75  330/ 19/ 23 1010.7R
44100 DUCK FRF   0105      74                N/A    12/11   7/11
44056 DUCK FRF   0100      75                N/A     9/11   5/11
OREGON INLET NC  0042   73 74  320/ 14/ 19 1011.1R
HATTERAS NC      0042   75 75  330/ 18/ 20 1012.1R
DIAMOND SHLS NC  0050   75 74  330/ 19/ 23 1011.4R   8/10   7/10
CAPE LOOKOUT NC  0100   77     350/  4/  6 1013.1R
$$



USA.gov is the U.S. government's official web portal to all federal, state and local government web resources and services.